Regional Weather Roundup
Issued by NWS

Home | Current Version | Previous Version | Text Only | Print | Product List | Glossary Off
Versions: 1 2 3 4 5 6 7 8 9 10 11 12 13 14 15 16 17 18 19 20 21 22 23 24 25 26 27 28 29 30 31 32 33 34 35 36 37 38 39 40 41 42 43 44 45 46 47 48 49 50

495
ASUS43 KFSD 042102
RWRSD

WEATHER ROUNDUP FOR SOUTH DAKOTA
NATIONAL WEATHER SERVICE SIOUX FALLS SD
300 PM CST SUN DEC 04 2016

NOTE: "FAIR" INDICATES FEW OR NO CLOUDS BELOW 12,000 FEET WITH NO
SIGNIFICANT WEATHER AND/OR OBSTRUCTIONS TO VISIBILITY.


SDZ001>005-009-010-012>017-042200-
NORTHWEST AND NORTH CENTRAL SOUTH DAKOTA

CITY           SKY/WX    TMP DP  RH WIND       PRES   REMARKS
BUFFALO          N/A     41  24  51 W10       29.61F
FAITH            N/A     38  29  70 S8        29.71F
MOBRIDGE       SUNNY     38  24  57 W6        29.72F
$$

SDZ012>016-024>037-041>051-057-063-072>074-042200-
SOUTHWEST AND SOUTH CENTRAL SOUTH DAKOTA

CITY           SKY/WX    TMP DP  RH WIND       PRES   REMARKS
RAPID CTY ARPT SUNNY     48  11  22 SW3       29.70F
PIERRE         SUNNY     39  26  59 SW8       29.77F
CUSTER         SUNNY     35  12  38 W5        29.69F
ELLSWORTH AFB  SUNNY     48  13  24 N3        29.69F
PHILIP         SUNNY     47  25  42 W12       29.75F
PINE RIDGE     SUNNY     42  22  44 SW9       29.76F
SPEARFISH      FAIR      43  12  28 NW9       29.69F
WINNER         FAIR      48  24  39 W13       29.81F
$$

SDZ004>011-016>023-039-040-042200-
NORTHEAST SOUTH DAKOTA

CITY           SKY/WX    TMP DP  RH WIND       PRES   REMARKS
ABERDEEN       SUNNY     40  29  64 W10       29.75S
WATERTOWN      SUNNY     36  30  79 W16       29.74S
SISSETON         N/A     38  31  76 W9        29.72S
$$

SDZ017-020-022-023-036>040-048>070-042200-
SOUTHEAST SOUTH DAKOTA

CITY           SKY/WX    TMP DP  RH WIND       PRES   REMARKS
SIOUX FALLS    MOSUNNY   44  33  65 W9        29.80F
HURON          SUNNY     42  31  64 W13       29.79S
CHAMBERLAIN    SUNNY     45  30  55 NW8       29.80F
MITCHELL       SUNNY     44  32  62 W15       29.81F
YANKTON        SUNNY     48  27  43 W14       29.82F
$$

ABBREVIATIONS USED IN REMARKS
   TC - TEMPERATURE IN CELSIUS
  WCI - WIND CHILL INDEX
   HX - HEAT INDEX
  VSB - VISIBILITY





USA.gov is the U.S. government's official web portal to all federal, state and local government web resources and services.